• In Belgium
  • List of Countries
  • For 7 days
  • Water Temperature
  • Satellite Maps
  • Weather Map
  • Weather Widgets
  • user-avatar
    Login

    Hourly Weather Canberra

    Today, 22 November, Wednesday

    Time Temperature Precipitation Wind Pressure Humidity
    00:00 +11°C° 0 mm 1 mps 712 mmHg 95%
    01:00 +10°C° 0 mm 1 mps 712 mmHg 96%
    02:00 +10°C° 0 mm 1 mps 712 mmHg 96%
    03:00 +10°C° 0 mm 1 mps 712 mmHg 96%
    04:00 +9°C° 0 mm 1 mps 711 mmHg 97%
    05:00 +11°C° 0 mm 1 mps 712 mmHg 89%
    06:00 +13°C° 0 mm 1 mps 712 mmHg 82%
    07:00 +15°C° 0 mm 1 mps 712 mmHg 74%
    08:00 +17°C° 0 mm 2 mps 712 mmHg 63%
    09:00 +20°C° 0 mm 2 mps 712 mmHg 52%
    10:00 +23°C° 0 mm 2 mps 712 mmHg 41%
    11:00 +24°C° 0 mm 2 mps 712 mmHg 38%
    12:00 +25°C° 0 mm 2 mps 712 mmHg 34%
    13:00 +27°C° 0 mm 2 mps 711 mmHg 31%
    14:00 +26°C° 0 mm 2 mps 711 mmHg 34%
    15:00 +26°C° 0 mm 2 mps 710 mmHg 36%
    16:00 +25°C° 0 mm 2 mps 710 mmHg 39%
    17:00 +23°C° 0.1 mm 2 mps 710 mmHg 52%
    18:00 +20°C° 0.1 mm 3 mps 710 mmHg 64%
    19:00 +17°C° 0.1 mm 3 mps 710 mmHg 76%
    20:00 +16°C° 0 mm 3 mps 710 mmHg 82%
    21:00 +15°C° 0 mm 2 mps 710 mmHg 88%
    22:00 +14°C° 0 mm 2 mps 710 mmHg 95%
    23:00 +14°C° 0 mm 1 mps 710 mmHg 96%

    Tomorrow, 23 November, Thursday

    Time Temperature Precipitation Wind Pressure Humidity
    00:00 +13°C° 0 mm 1 mps 710 mmHg 97%
    01:00 +12°C° 0 mm 1 mps 709 mmHg 98%
    02:00 +12°C° 0 mm 1 mps 709 mmHg 98%
    03:00 +12°C° 0 mm 1 mps 709 mmHg 97%
    04:00 +11°C° 0 mm 1 mps 709 mmHg 97%
    05:00 +13°C° 0 mm 1 mps 709 mmHg 90%
    06:00 +15°C° 0 mm 1 mps 709 mmHg 82%
    07:00 +18°C° 0 mm 1 mps 710 mmHg 75%
    08:00 +20°C° 0 mm 1 mps 710 mmHg 64%
    09:00 +23°C° 0 mm 2 mps 710 mmHg 53%
    10:00 +25°C° 0 mm 2 mps 711 mmHg 42%
    11:00 +26°C° 0.1 mm 2 mps 710 mmHg 40%
    12:00 +27°C° 0.1 mm 2 mps 710 mmHg 37%
    13:00 +27°C° 0.1 mm 2 mps 709 mmHg 35%
    14:00 +27°C° 0.1 mm 2 mps 709 mmHg 39%
    15:00 +26°C° 0.1 mm 2 mps 709 mmHg 42%
    16:00 +25°C° 0.1 mm 2 mps 708 mmHg 46%
    17:00 +23°C° 0.1 mm 2 mps 708 mmHg 53%
    18:00 +21°C° 0.1 mm 1 mps 708 mmHg 60%
    19:00 +19°C° 0.1 mm 1 mps 708 mmHg 67%
    20:00 +19°C° 0.5 mm 1 mps 709 mmHg 72%
    21:00 +18°C° 0.5 mm 1 mps 709 mmHg 77%
    22:00 +16°C° 0.5 mm 1 mps 709 mmHg 82%
    23:00 +16°C° 0.1 mm 1 mps 709 mmHg 85%

    Day after tomorrow, 24 November, Friday

    Time Temperature Precipitation Wind Pressure Humidity
    00:00 +15°C° 0.1 mm 1 mps 709 mmHg 88%
    01:00 +15°C° 0.1 mm 1 mps 708 mmHg 91%
    02:00 +15°C° 0.1 mm 1 mps 708 mmHg 90%
    03:00 +15°C° 0.1 mm 1 mps 708 mmHg 90%
    04:00 +15°C° 0.1 mm 1 mps 708 mmHg 89%
    05:00 +16°C° 0 mm 1 mps 709 mmHg 82%
    06:00 +19°C° 0 mm 1 mps 709 mmHg 76%
    07:00 +20°C° 0 mm 1 mps 710 mmHg 69%
    08:00 +23°C° 0 mm 2 mps 710 mmHg 58%
    09:00 +25°C° 0 mm 2 mps 710 mmHg 47%
    10:00 +28°C° 0 mm 3 mps 710 mmHg 36%
    11:00 +28°C° 0 mm 3 mps 710 mmHg 35%
    12:00 +29°C° 0 mm 2 mps 710 mmHg 34%
    13:00 +29°C° 0 mm 2 mps 710 mmHg 33%
    14:00 +28°C° 0 mm 2 mps 709 mmHg 38%
    15:00 +27°C° 0 mm 2 mps 709 mmHg 43%
    16:00 +26°C° 0 mm 1 mps 709 mmHg 48%
    17:00 +24°C° 0.1 mm 1 mps 709 mmHg 55%
    18:00 +22°C° 0.1 mm 1 mps 709 mmHg 63%
    19:00 +20°C° 0.1 mm 1 mps 709 mmHg 70%
    20:00 +20°C° 0.2 mm 1 mps 709 mmHg 75%
    21:00 +19°C° 0.2 mm 1 mps 710 mmHg 80%
    22:00 +18°C° 0.2 mm 1 mps 710 mmHg 85%
    23:00 +18°C° 0.2 mm 1 mps 710 mmHg 85%

    25 November, Saturday

    Time Temperature Precipitation Wind Pressure Humidity
    00:00 +16°C° 0.2 mm 1 mps 710 mmHg 86%
    01:00 +16°C° 0.2 mm 1 mps 709 mmHg 87%
    02:00 +16°C° 0 mm 1 mps 709 mmHg 87%
    03:00 +15°C° 0 mm 1 mps 709 mmHg 87%
    04:00 +15°C° 0 mm 1 mps 709 mmHg 86%
    05:00 +18°C° 0 mm 1 mps 710 mmHg 79%
    06:00 +18°C° 0 mm 0 mps 710 mmHg 72%
    07:00 +20°C° 0 mm 0 mps 711 mmHg 64%
    08:00 +23°C° 0 mm 0 mps 711 mmHg 54%
    09:00 +28°C° 0 mm 1 mps 711 mmHg 44%
    10:00 +30°C° 0 mm 1 mps 712 mmHg 34%
    11:00 +31°C° 0 mm 1 mps 711 mmHg 33%
    12:00 +31°C° 0 mm 1 mps 711 mmHg 31%
    13:00 +31°C° 0 mm 1 mps 710 mmHg 30%
    14:00 +30°C° 0 mm 2 mps 710 mmHg 33%
    15:00 +29°C° 0 mm 2 mps 710 mmHg 37%
    16:00 +28°C° 0 mm 2 mps 709 mmHg 40%
    17:00 +26°C° 0.2 mm 2 mps 709 mmHg 48%
    18:00 +24°C° 0.2 mm 2 mps 710 mmHg 56%
    19:00 +21°C° 0.2 mm 2 mps 710 mmHg 64%
    20:00 +20°C° 0.4 mm 2 mps 710 mmHg 72%
    21:00 +18°C° 0.4 mm 2 mps 710 mmHg 80%
    22:00 +18°C° 0.4 mm 1 mps 710 mmHg 88%
    23:00 +16°C° 0.1 mm 1 mps 710 mmHg 89%

    26 November, Sunday

    Time Temperature Precipitation Wind Pressure Humidity
    00:00 +16°C° 0.1 mm 1 mps 709 mmHg 91%
    01:00 +15°C° 0.1 mm 1 mps 709 mmHg 92%
    02:00 +15°C° 0 mm 1 mps 709 mmHg 92%
    03:00 +15°C° 0 mm 1 mps 709 mmHg 91%
    04:00 +15°C° 0 mm 1 mps 708 mmHg 90%
    05:00 +16°C° 0 mm 1 mps 709 mmHg 83%
    06:00 +19°C° 0 mm 1 mps 709 mmHg 77%
    07:00 +21°C° 0 mm 1 mps 710 mmHg 71%
    08:00 +23°C° 0 mm 1 mps 710 mmHg 60%
    09:00 +26°C° 0 mm 2 mps 710 mmHg 50%
    10:00 +28°C° 0 mm 2 mps 710 mmHg 40%
    11:00 +29°C° 0 mm 2 mps 710 mmHg 37%
    12:00 +30°C° 0 mm 3 mps 710 mmHg 35%
    13:00 +31°C° 0 mm 3 mps 709 mmHg 33%
    14:00 +29°C° 0.5 mm 3 mps 709 mmHg 41%
    15:00 +28°C° 0.5 mm 4 mps 708 mmHg 49%
    16:00 +26°C° 0.5 mm 4 mps 708 mmHg 57%
    17:00 +24°C° 2.2 mm 3 mps 708 mmHg 67%
    18:00 +21°C° 2.2 mm 2 mps 708 mmHg 77%
    19:00 +20°C° 2.2 mm 1 mps 708 mmHg 88%
    20:00 +19°C° 0.7 mm 1 mps 708 mmHg 90%
    21:00 +19°C° 0.7 mm 1 mps 709 mmHg 91%
    22:00 +18°C° 0.7 mm 1 mps 709 mmHg 93%
    23:00 +18°C° 0.4 mm 1 mps 709 mmHg 94%

    27 November, Monday

    Time Temperature Precipitation Wind Pressure Humidity
    00:00 +18°C° 0.4 mm 1 mps 708 mmHg 94%
    01:00 +18°C° 0.4 mm 1 mps 708 mmHg 95%
    02:00 +18°C° 0.1 mm 1 mps 708 mmHg 95%
    03:00 +18°C° 0.1 mm 1 mps 708 mmHg 95%
    04:00 +16°C° 0.1 mm 0 mps 708 mmHg 95%
    05:00 +18°C° 0.2 mm 1 mps 708 mmHg 92%
    06:00 +19°C° 0.2 mm 1 mps 708 mmHg 90%
    07:00 +20°C° 0.2 mm 1 mps 709 mmHg 88%
    08:00 +22°C° 0.7 mm 1 mps 709 mmHg 81%
    09:00 +23°C° 0.7 mm 2 mps 709 mmHg 74%
    10:00 +25°C° 0.7 mm 2 mps 709 mmHg 67%
    11:00 +25°C° 1.1 mm 2 mps 709 mmHg 66%
    12:00 +25°C° 1.1 mm 2 mps 709 mmHg 64%
    13:00 +25°C° 1.1 mm 1 mps 708 mmHg 62%
    14:00 +25°C° 0.6 mm 1 mps 708 mmHg 63%
    15:00 +25°C° 0.6 mm 1 mps 708 mmHg 64%
    16:00 +25°C° 0.6 mm 1 mps 708 mmHg 65%
    17:00 +24°C° 0.2 mm 1 mps 708 mmHg 71%
    18:00 +21°C° 0.2 mm 2 mps 709 mmHg 77%
    19:00 +19°C° 0.2 mm 2 mps 709 mmHg 83%
    20:00 +19°C° 0.1 mm 2 mps 709 mmHg 88%
    21:00 +18°C° 0.1 mm 2 mps 710 mmHg 92%
    22:00 +17°C° 0.1 mm 2 mps 710 mmHg 96%
    23:00 +17°C° 0 mm 2 mps 710 mmHg 96%
    Show more